Location: Catacaguana
(10.4120°N, 66.7591°W)
Time: 19:58:51
(UTC+00:00)

SL-08 R/B - Visible Passes

Search period start: 26 February 2024 00:00
Search period end: 07 March 2024 00:00
Orbit: 671 x 734 km, 98.5° (Epoch: 25 February)

Date Brightness Start Highest point End Pass type
(mag) Time Alt. Az. Time Alt. Az. Time Alt. Az.
26 Feb 3.8 10:18:35 10° SSE 10:23:27 69° ENE 10:28:21 10° N visible
27 Feb 6.4 09:26:20 10° ESE 09:28:51 14° ENE 09:31:23 10° NE visible
27 Feb 5.4 23:18:05 10° NNW 23:22:03 28° WNW 23:25:58 10° SW visible
28 Feb 4.6 10:06:45 10° SSE 10:11:28 48° ENE 10:16:10 10° N visible
29 Feb 4.7 23:05:42 10° N 23:10:01 41° WNW 23:14:20 10° SSW visible
01 Mar 5.3 09:55:04 10° SE 09:59:28 33° ENE 10:03:51 10° NNE visible
01 Mar 6.5 23:51:08 10° NW 23:52:36 11° WNW 23:54:05 10° W visible
02 Mar 3.9 22:53:27 10° N 22:57:59 62° WNW 23:02:30 10° SSW visible
03 Mar 5.9 09:43:35 10° SE 09:47:28 24° ENE 09:51:20 10° NNE visible
03 Mar 6.2 23:37:41 10° NW 23:40:36 17° WNW 23:43:31 10° WSW visible
05 Mar 6.3 09:32:24 10° ESE 09:35:28 17° ENE 09:38:31 10° NE visible
05 Mar 5.7 23:24:54 10° NNW 23:28:35 24° WNW 23:32:15 10° SW visible
06 Mar 4.3 10:13:16 10° SSE 10:18:05 56° ENE 10:22:52 10° N visible
